Welcome to Flynqy Pilot Training

Lothar, Marshall and Zara flying together in the Robin DR400

Flynqy Pilot Training operates from Cornwall Airport Newquay, a regional airport with professional facilities and an all-weather runway. We're also lucky to have the stunning coastlines and landscapes of Cornwall and Devon as a backdrop for our flights.

We have a fleet of four training aircraft consisting of two Cessna 152's, a Robin DR400 and a Piper PA28. Our aircraft rates and course fees are highly competitive and our training results are impressive. All of our pilots are commercial pilots with full instructor ratings and many years of experience.

We offer a range of services, from initial flight experiences and starter sessions to Commercial Pilot Training. We also look after visiting general aviation pilots on behalf of the airport. We insist on absolute professionalism, best practice and rigorous flight standards... but we also try to have fun!

Flynqy Pilot Training is generally open seven days a week throughout the year, so please do give us a call or pop in and see us!

What our customers say

Weather Forecast

This Newquay Cornwall Airport weather forecast is generated by the Met Office Weather Widget

METAR

EGHQ 260750Z 27013KT 9999 FEW020 15/12 Q1022

TAF

TAF EGHQ 260704Z 2607/2615 24012KT 9999 SCT025 BECMG 2610/2613 6000 -RADZ BKN007 TEMPO 2610/2615 3000 RADZ BR BKN004 PROB30 TEMPO 2612/2615 0700 FG BKN001

Latest News